    Orbital elements:
    2011 PT1                                                 Earth MOID = 0.1001 AU
    Epoch 2013 Apr. 18.0 TT = JDT 2456400.5                 MPC
    M 280.20598              (2000.0)            P               Q
    n   0.48133207     Peri.  358.19686     +0.99275158     +0.11846890
    a   1.6125240      Node   354.86571     -0.10724371     +0.79721575
    e   0.3146485      Incl.   13.06798     -0.05425031     +0.59195622
    P   2.05           H   20.3           G   0.15           U   0
    Residuals in seconds of arc
    110804 E12  0.2-  0.0     110921 A98  0.2+  0.2+    111001 A53  0.1+  0.2+
    110804 E12  0.8+  0.3+    110921 A98  0.3+  0.2-    111001 A53  0.0   0.4+
    110804 E12  0.8-  0.3+    110921 A98  0.0   0.1+    111001 A53  0.0   0.4+
    110804 E12  0.0   0.1+    110921 A98  0.0   0.2+    111001 A53  0.2-  0.4+
    110805 E12  0.2-  0.2-    110921 A98  0.2+  0.1-    111001 A53  0.1-  0.3+
    110805 E12  0.0   0.1-    110921 A98  0.1-  0.1-    111001 046  0.1+  0.2+
    110805 E12  0.1+  0.2-    110921 A98  0.1+  0.2+    111001 046  0.1+  0.1+
    110807 E12  0.2+  0.1-    110921 A98  0.1-  0.1+    111001 046  0.0   0.2+
    110807 E12  0.2+  0.0     110921 A98  0.4+  0.2-    111001 046  0.0   0.5+
    110807 E12  0.2+  0.2+    110922 A53  0.4-  0.6+    111001 046  0.1-  0.6+
    110808 D90  0.1-  0.2+    110922 A53  0.2-  0.4+    111001 160  0.4+  0.2+
    110808 D90  0.0   0.0     110922 A53  0.1-  0.3+    111001 160  0.2+  0.3-
    110808 D90  0.1-  0.1-    110922 A53  0.1+  0.4+    111001 160  0.0   0.1+
    110809 D22  0.2+  0.3+    110922 A53  0.3+  0.7+    111002 A78  0.0   1.3-
    110809 D22  0.1+  0.2+    110922 A53  0.1+  0.5+    111002 A78  0.5-  0.8-
    110809 D22  0.1+  0.2-    110922 A24  0.3+  0.5+    111002 A78  0.2-  0.7-
    110810 807  0.2-  0.0     110922 A24  0.1+  0.5+    111002 A78  0.8+  0.8-
    110810 807  0.4-  0.2+    110923 A24  0.3-  0.7+    111002 A24  0.1+  0.4+
    110814 E12  0.2-  0.3-    110923 A24  0.1-  0.6+    111002 A24  0.2+  0.4+
    110814 E12  0.1-  0.0     110923 379  0.2-  0.5-    111002 046  0.1+  0.1+
    110822 807  0.7+  0.0     110923 379  0.2-  0.0     111002 046  0.0   0.2+
    110822 807  0.2+  0.3+    110923 379  0.1-  0.2-    111002 046  0.3-  0.3+
    110822 807  0.6+  0.2-    110923 379  0.2-  0.7-    111002 046  0.3-  0.3+
    110822 E12  0.2+  0.1+    110923 379  0.5-  0.4-    111003 A24  0.2-  0.7+
    110822 E12  0.2+  0.0     110923 379  0.3-  0.4-    111003 A24  0.2-  0.1+
    110827 474  0.1+  0.4+    110923 379  0.4-  0.2-    111003 A48  0.1-  0.0
    110827 474  0.4+  0.2+    110923 379  0.2+  0.1-    111003 A48  0.3-  0.0
    110827 474  0.5+  0.2+    110923 379  0.3+  0.2-    111003 A48  0.2+  0.1-
    110830 204  0.1+  0.2-    110923 379  0.1-  0.7-    111003 A48  0.1-  0.0
    110830 204  0.0   0.0     110923 C01  0.3+  0.4+    111003 A24  0.2+  0.1+
    110830 204  0.1-  0.0     110923 C01  0.9+  0.6-    111003 A24  0.2+  0.0
    110830 474  0.4-  0.3+    110923 C01  0.1+  0.3-    111003 160  0.1+  0.1+
    110830 474  0.3-  0.2+    110923 C01  0.2+  0.4-    111003 160  0.1+  0.0
    110830 474  0.0   0.1+    110923 C01  0.2+  0.5-    111003 160  0.1+  0.1+
    110901 I39  0.1+  0.2-    110923 C01  0.2+  0.3-    111003 046  0.2-  0.2+
    110901 I39  0.0   0.0     110923 C01  0.1+  0.3-    111003 046  0.2+  0.3+
    110901 I39  0.0   0.3-    110923 C01  0.2+  0.2-    111003 046  0.1+  0.1-
    110901 I39  0.1+  0.2+    110923 C01  0.1+  0.2-    111003 046  0.3-  0.3+
    110902 844  0.8+  0.5+    110923 C01  0.2+  0.1-    111003 046  0.2+  0.0
    110902 844  0.6-  0.2-    110924 A35  0.1+  0.1+    111004 B75  3.0-  1.2-
    110902 844  1.8-  0.1-    110924 A35  0.2+  0.2-    111004 B75  0.2+  1.8-
    110902 844  2.2+  0.6-    110924 A35  0.1+  0.2-    111004 B75 (0.2-  3.7-)
    110902 844  0.4-  0.4+    110924 A35  0.0   0.0     111004 B75  1.2-  0.2+
    110902 844  0.7-  0.7-    110924 C47  0.4+  0.0     111004 B75  2.6+  0.8-
    110902 844  0.2-  0.1-    110924 C47  0.2+  0.2-    111005 046  0.2-  1.0+
    110902 844  0.5-  0.4-    110924 C47  0.2+  0.3-    111005 046  0.4+  0.5+
    110904 I20  0.3+  0.4-    110924 A53  0.2+  0.5+    111005 046  0.2-  0.5+
    110904 I20  0.2-  0.2+    110924 A53  0.2+  0.5+    111005 046  0.2-  0.3+
    110904 I20  0.2+  0.3-    110924 A53  0.1+  0.6+    111005 071  0.2-  0.2+
    110907 379  0.6-  0.2-    110924 A53  0.1-  0.3+    111005 071  0.9-  0.1+
    110907 379  0.2-  0.6-    110924 A53  0.2-  0.3+    111005 071  1.6-  2.0-
    110907 379  0.5-  0.5-    110924 C47  0.2+  0.0     111005 071  0.9+  1.7-
    110907 379  0.4-  0.0     110924 C47  0.2+  0.0     111005 071 (0.1+  3.8-)
    110907 379  0.5-  0.1-    110924 C47  0.3+  0.1-    111006 703  0.3+  0.2+
    110907 379  0.3-  0.2+    110926 H45  0.2+  0.1+    111006 703  0.4-  0.2+
    110907 379  0.1+  0.1-    110926 H45  0.2+  0.1+    111006 703  0.2-  0.1-
    110907 379  0.1-  0.5-    110926 H45  0.1+  0.0     111006 703  1.2-  2.0+
    110911 160  0.4+  0.0     110926 H45  0.1-  0.1-    111006 160  0.3+  0.5-
    110911 160  0.5+  0.6-    110926 H45  0.1+  0.1+    111006 160  0.4+  0.2-
    110911 160  0.0   0.4-    110926 H45  0.2+  0.1+    111006 160  0.4+  0.1-
    110911 204  0.1-  0.2+    110926 B67  0.6-  0.5+    111007 I15  0.1+  0.1+
    110911 204  0.0   0.1+    110926 B67  0.5-  0.4+    111007 I15  0.1-  0.3+
    110911 204  0.1-  0.2-    110926 B67  0.7-  0.5+    111007 I15  0.1+  0.2+
    110911 300  0.3+  0.7-    110926 160  0.2+  0.2+    111015 H21  0.0   0.1-
    110911 300  0.0   0.1-    110926 160  0.3+  0.2+    111015 H21  0.0   0.0
    110911 300  0.6+  0.2-    110926 160  0.2+  0.1-    111015 H21  0.0   0.0
    110911 300  0.3+  0.3-    110926 046  0.2-  0.1+    111015 H21  0.1-  0.2-
    110911 300  0.1-  0.5-    110926 046  0.0   0.1+    111016 204  0.2-  0.2-
    110916 C73  0.2-  0.2+    110926 046  0.3-  0.3+    111016 204  0.0   0.0
    110916 C73  0.0   0.3+    110926 046  0.5-  0.1+    111016 204  0.1+  0.0
    110916 C73  0.2+  0.4+    110926 046  0.1-  0.1+    111016 A48  0.0   0.1-
    110918 H23  0.2-  0.7+    110926 046  0.0   0.3+    111016 A48  1.2+  0.5+
    110918 H23  0.3-  0.5+    110926 046  0.1-  0.3+    111016 A48  0.3+  0.4+
    110918 H23  0.2-  0.4+    110927 G56  0.5+  0.1-    111016 A48  0.8+  0.2+
    110918 379  0.1-  0.0     110927 G56  0.1-  0.6+    111021 046  0.1-  0.4-
    110918 379  0.3+  0.4-    110927 G56  0.0   0.5+    111021 046  0.0   0.3-
    110918 379  0.1-  0.1+    110927 G56  0.0   0.3-    111021 046  0.1-  0.4+
    110918 379  0.1-  0.0     110927 G56  0.4+  0.2+    111021 046  0.3-  0.1-
    110918 379  0.2-  0.2-    110928 160  0.1+  0.1-    111021 046  0.3-  0.1+
    110921 A24  0.6+  0.2+    110928 160  0.2+  0.1+    111024 F51  0.1+  0.1+
    110921 A24  0.1+  0.3+    110928 160  0.2-  0.1-    111024 F51  0.0   0.1+
    110921 130  0.1-  0.2-    110929 703  0.5-  0.1+    111024 F51  0.1+  0.1+
    110921 130  0.3-  0.1-    110929 703  0.0   0.1+    111024 F51  0.1+  0.1+
    110921 130  0.2-  0.1-    110929 703  0.0   0.0     111102 046  0.4+  1.1-
    110921 130  0.0   0.2-    110929 703  0.0   0.1+    111102 046  0.1+  0.3+
    110921 A24  0.4-  0.5+    110930 A78  0.4-  1.1-    111102 046  0.6+  0.5+
    110921 A24  0.3+  0.3+    110930 A78  0.3+  0.1-    111124 H36  0.1+  0.2+
    110921 703  0.2+  0.2+    110930 A78  0.9-  0.5-    111124 H36  0.3+  0.1-
    110921 703  0.2-  0.3+    110930 A78  0.4-  0.1-    111124 H36  0.3-  0.1-
    110921 703  0.2+  0.2+    110930 C47  0.0   0.2-    130609 807  0.0   0.2-
    110921 703  0.1+  0.3+    110930 C47  0.3+  0.2+    130609 807  0.1+  0.1-
    110921 A98  0.2+  0.1-    111001 046  0.4-  0.0     130609 807  0.0   0.0
    110921 A98  0.0   0.0     111001 046  0.3-  0.3-    130609 474  0.2+  0.0
    110921 A98  0.2+  0.1-    111001 046  0.3-  0.3+    130609 474  0.0   0.0
    110921 A98  0.2-  0.1+    111001 046  0.1-  0.1+    130609 474  0.3+  0.2+
    110921 A98  0.3+  0.0     111001 046  0.4-  0.2+    130616 807  0.2-  0.3+
    110921 A98  0.0   0.1+    111001 046  0.1-  0.4+    130616 807  0.0   0.2+
    110921 A98  0.2+  0.0     111001 046  0.2-  0.8+    130616 807  0.3-  0.5+
    110921 A98  0.1+  0.1+    111001 C47  0.1+  0.2+
    110921 A98  0.2+  0.1-    111001 C47  0.1-  0.2-
    
    Ephemeris:
    2011 PT1                 a,e,i = 1.61, 0.31, 13                  q = 1.1051
    Date    TT    R. A. (2000) Decl.     Delta      r     Elong.  Phase     V
    2013 05 18    18 31 03.3 -53 32 15   0.6776  1.5530   132.7    28.6    21.7
    ...
    2013 06 02    18 32 48.4 -59 14 03   0.5696  1.4863   137.8    27.3    21.2
    ...
    2013 06 10    18 26 10.5 -62 10 54   0.5229  1.4504   138.9    27.4    20.9
    ...
    2013 06 16    18 16 51.3 -64 09 47   0.4928  1.4235   138.7    28.1    20.8
    2013 06 17    18 14 55.7 -64 27 50   0.4881  1.4190   138.5    28.3    20.8
    2013 06 18    18 12 53.8 -64 45 18   0.4836  1.4146   138.4    28.5    20.7
    ...
    2013 06 24    17 58 39.7 -66 15 39   0.4585  1.3878   137.1    29.9    20.6
    ...
    2013 07 02    17 35 38.2 -67 29 02   0.4301  1.3526   134.3    32.5    20.5
    ...
    2013 07 17    16 56 00.1 -66 56 37   0.3889  1.2888   127.1    39.0    20.4
    
    A. U. Tomatic                (C) Copyright 2013 MPC           M.P.E.C. 2013-M12
    

    Read MPEC 2013-M11 Read MPEC 2013-M13


    MPEC number:

    Enter an MPEC number in one of the following forms:

    • 1997-B01 (the full form)
    • J97B01 (the packed version of the full form)
    • B01 (the abbreviated form)